Plainview, TX

8:37 PM CST on December 06, 2019 (GMT -0600)
Hale County

Weather History for KPVW - November, 2019

Change the Weather History Date:

Wednesday, November 13, 2019

  Actual Average Record
Temperature  
Mean Temperature 47 °F -  
Max Temperature 67 °F 60 °F 82 °F (1910)
Min Temperature 27 °F 35 °F 13 °F (1916)
Degree Days  
Heating Degree Days 18    
Moisture  
Dew Point 21 °F    
Average Humidity 48    
Maximum Humidity 71    
Minimum Humidity 16    
Precipitation  
Precipitation 0.00 in - - ()
Sea Level Pressure  
Sea Level Pressure 29.99 in    
Wind  
Wind Speed 10 mph (WSW)    
Max Wind Speed 18 mph    
Max Gust Speed 24 mph    
Visibility 10 miles    
Events      
Averages and records for this station are not official NWS values.
T = Trace of Precipitation, MM = Missing Value Source: NWS Daily Summary

Daily Weather History Graph

Daily Weather History Graph

Search for Another Location

Airport or City:

Astronomy

Nov. 13, 2019 Rise Set
Actual Time 7:17 AM CST 5:44 PM CST
Civil Twilight 6:51 AM CST 6:10 PM CST
Nautical Twilight 6:20 AM CST 6:40 PM CST
Astronomical Twilight 5:51 AM CST 7:10 PM CST
Moon 6:50 PM CST (11/13) 8:12 AM CST (11/13)
Length of Visible Light 11h 19m
Length of Day
10h 26m
Full, 99% of the Moon is Illuminated
Nov 13
Full
Nov 19
Last Quarter
Nov 26
New
Dec 4
First Quarter
Dec 11
Full

Hourly Weather History & Observations

Time (CST) Temp. Windchill Dew Point Humidity Pressure Visibility Wind Dir Wind Speed Gust Speed Precip Events Conditions
12:15 AM 29.3 °F 21.5 °F 12.0 °F 49% 30.15 in 10.0 mi SW 8.1 mph - N/A   Clear
12:35 AM 29.3 °F 20.8 °F 12.2 °F 49% 30.13 in 10.0 mi SW 9.2 mph - N/A   Clear
12:55 AM 29.1 °F 20.0 °F 12.7 °F 50% 30.13 in 10.0 mi SW 10.4 mph - N/A   Clear
1:15 AM 28.6 °F 18.2 °F 13.1 °F 52% 30.11 in 10.0 mi SW 12.7 mph - N/A   Clear
1:35 AM 28.4 °F 19.7 °F 13.1 °F 53% 30.11 in 10.0 mi SW 9.2 mph - N/A   Clear
1:55 AM 28.4 °F 20.4 °F 12.9 °F 52% 30.11 in 10.0 mi SW 8.1 mph - N/A   Clear
2:15 AM 28.4 °F 19.7 °F 12.7 °F 52% 30.11 in 10.0 mi SW 9.2 mph - N/A   Clear
2:35 AM 28.9 °F 19.8 °F 12.6 °F 50% 30.09 in 10.0 mi SW 10.4 mph 17.3 mph N/A   Clear
2:55 AM 28.4 °F 18.0 °F 13.1 °F 53% 30.08 in 10.0 mi SW 12.7 mph - N/A   Clear
3:15 AM 28.4 °F 17.5 °F 13.1 °F 53% 30.06 in 10.0 mi SW 13.8 mph 19.6 mph N/A   Clear
3:35 AM 28.9 °F 17.7 °F 13.1 °F 52% 30.05 in 10.0 mi SW 15.0 mph - N/A   Clear
3:55 AM 29.1 °F 18.4 °F 13.1 °F 51% 30.04 in 10.0 mi SW 13.8 mph 17.3 mph N/A   Clear
4:15 AM 28.4 °F 18.0 °F 13.6 °F 54% 30.03 in 10.0 mi SW 12.7 mph - N/A   Clear
4:35 AM 28.2 °F 17.7 °F 14.0 °F 55% 30.02 in 10.0 mi SW 12.7 mph 20.7 mph N/A   Clear
4:55 AM 28.0 °F 16.5 °F 14.4 °F 57% 30.02 in 10.0 mi SW 15.0 mph 20.7 mph N/A   Clear
5:15 AM 28.4 °F 15.8 °F 14.9 °F 57% 30.01 in 10.0 mi SW 18.4 mph 21.9 mph N/A   Clear
5:35 AM 28.4 °F 16.2 °F 15.3 °F 58% 30.01 in 10.0 mi SW 17.3 mph 21.9 mph N/A   Clear
5:55 AM 28.4 °F 17.0 °F 15.8 °F 59% 30.00 in 10.0 mi SW 15.0 mph 21.9 mph N/A   Clear
6:15 AM 28.4 °F 18.0 °F 16.2 °F 60% 29.99 in 10.0 mi SW 12.7 mph 20.7 mph N/A   Clear
6:35 AM 28.6 °F 17.7 °F 16.7 °F 61% 29.99 in 10.0 mi SW 13.8 mph 20.7 mph N/A   Clear
6:55 AM 28.4 °F 17.0 °F 17.2 °F 63% 29.99 in 10.0 mi SW 15.0 mph 21.9 mph N/A   Clear
7:15 AM 28.4 °F 17.5 °F 17.4 °F 63% 29.99 in 10.0 mi SW 13.8 mph - N/A   Clear
7:35 AM 27.9 °F 17.8 °F 17.6 °F 65% 29.99 in 10.0 mi WSW 11.5 mph - N/A   Clear
7:55 AM 28.4 °F 18.5 °F 18.1 °F 65% 29.99 in 10.0 mi WSW 11.5 mph - N/A   Clear
8:15 AM 29.7 °F 19.6 °F 18.5 °F 63% 29.98 in 10.0 mi WSW 12.7 mph - N/A   Clear
8:35 AM 31.8 °F 21.4 °F 19.2 °F 60% 29.98 in 10.0 mi WSW 15.0 mph 18.4 mph N/A   Clear
8:55 AM 34.0 °F 23.4 °F 19.8 °F 56% 29.97 in 10.0 mi WSW 17.3 mph 21.9 mph N/A   Clear
9:15 AM 36.7 °F 27.2 °F 21.0 °F 53% 29.97 in 10.0 mi SW 16.1 mph - N/A   Clear
9:35 AM 38.8 °F 31.2 °F 21.6 °F 50% 29.96 in 10.0 mi SW 12.7 mph 17.3 mph N/A   Clear
9:55 AM 41.0 °F 32.2 °F 22.3 °F 47% 29.96 in 10.0 mi SW 18.4 mph 21.9 mph N/A   Clear
10:15 AM 43.3 °F 35.8 °F 23.2 °F 45% 29.95 in 10.0 mi SW 16.1 mph - N/A   Clear
10:35 AM 46.4 °F 41.1 °F 23.9 °F 41% 29.95 in 10.0 mi SW 11.5 mph 21.9 mph N/A   Clear
10:55 AM 48.4 °F - 24.6 °F 39% 29.95 in 10.0 mi WSW 15.0 mph - N/A   Clear
11:15 AM 50.9 °F - 25.0 °F 36% 29.95 in 10.0 mi WSW 13.8 mph 18.4 mph N/A   Clear
11:35 AM 53.2 °F - 25.5 °F 34% 29.95 in 10.0 mi WSW 11.5 mph - N/A   Clear
11:55 AM 54.9 °F - 25.9 °F 33% 29.94 in 10.0 mi WSW 11.5 mph - N/A   Clear
12:15 PM 57.2 °F - 25.7 °F 30% 29.93 in 10.0 mi WSW 12.7 mph 17.3 mph N/A   Clear
12:35 PM 58.6 °F - 26.1 °F 29% 29.92 in 10.0 mi SW 11.5 mph 18.4 mph N/A   Clear
12:55 PM 61.0 °F - 26.4 °F 27% 29.89 in 10.0 mi SSW 9.2 mph - N/A   Clear
1:15 PM 63.7 °F - 22.6 °F 21% 29.89 in 10.0 mi WSW 15.0 mph 24.2 mph N/A   Clear
1:35 PM 64.2 °F - 21.9 °F 20% 29.88 in 10.0 mi West 13.8 mph 20.7 mph N/A   Clear
1:55 PM 64.8 °F - 21.7 °F 19% 29.87 in 10.0 mi West 13.8 mph 17.3 mph N/A   Clear
2:15 PM 65.7 °F - 21.7 °F 19% 29.87 in 10.0 mi West 10.4 mph 16.1 mph N/A   Clear
2:35 PM 66.4 °F - 21.6 °F 18% 29.88 in 10.0 mi WSW 9.2 mph - N/A   Clear
2:55 PM 67.5 °F - 20.7 °F 17% 29.87 in 10.0 mi WNW 8.1 mph - N/A   Clear
3:15 PM 66.9 °F - 20.3 °F 17% 29.87 in 10.0 mi WSW 5.8 mph - N/A   Clear
3:35 PM 66.9 °F - 19.4 °F 16% 29.88 in 10.0 mi WNW 6.9 mph - N/A   Clear
3:55 PM 66.7 °F - 19.8 °F 17% 29.88 in 10.0 mi North 4.6 mph - N/A   Clear
4:15 PM 64.4 °F - 28.4 °F 26% 29.88 in 10.0 mi South 9.2 mph - N/A   Clear
4:55 PM 60.8 °F - 30.0 °F 31% 29.90 in 10.0 mi SSW 6.9 mph - N/A   Clear
5:15 PM 59.0 °F - 30.0 °F 33% 29.91 in 10.0 mi SSW 5.8 mph - N/A   Clear
5:35 PM 56.7 °F - 29.7 °F 36% 29.92 in 10.0 mi SSE 3.5 mph - N/A   Clear
5:55 PM 54.7 °F - 29.7 °F 38% 29.93 in 10.0 mi Calm Calm - N/A   Clear
6:15 PM 51.8 °F - 28.9 °F 41% 29.94 in 10.0 mi Calm Calm - N/A   Clear
6:35 PM 50.4 °F - 29.7 °F 45% 29.95 in 10.0 mi Calm Calm - N/A   Clear
6:55 PM 48.4 °F - 29.3 °F 48% 29.96 in 10.0 mi Calm Calm - N/A   Clear
7:15 PM 47.3 °F - 28.8 °F 49% 29.97 in 10.0 mi North 3.5 mph - N/A   Clear
7:35 PM 43.0 °F 38.8 °F 25.9 °F 51% 29.99 in 10.0 mi East 6.9 mph - N/A   Clear
7:55 PM 42.3 °F 40.5 °F 26.4 °F 54% 29.99 in 10.0 mi East 3.5 mph - N/A   Clear
8:15 PM 41.0 °F - 27.9 °F 60% 30.00 in 10.0 mi Calm Calm - N/A   Clear
8:35 PM 39.6 °F - 25.9 °F 58% 30.01 in 10.0 mi Calm Calm - N/A   Clear
8:55 PM 37.6 °F - 25.3 °F 61% 30.02 in 10.0 mi Calm Calm - N/A   Clear
9:15 PM 37.4 °F - 25.7 °F 63% 30.03 in 10.0 mi Calm Calm - N/A   Clear
9:35 PM 36.9 °F 34.3 °F 26.6 °F 66% 30.04 in 10.0 mi NNE 3.5 mph - N/A   Clear
9:55 PM 34.5 °F 28.6 °F 25.5 °F 70% 30.06 in 10.0 mi North 6.9 mph - N/A   Clear
10:15 PM 34.9 °F 29.9 °F 24.6 °F 66% 30.06 in 10.0 mi North 5.8 mph - N/A   Clear
10:35 PM 34.9 °F 27.7 °F 25.3 °F 68% 30.06 in 10.0 mi North 9.2 mph - N/A   Clear
10:55 PM 35.1 °F 30.1 °F 25.9 °F 69% 30.07 in 10.0 mi NNE 5.8 mph - N/A   Clear
11:15 PM 37.6 °F 32.3 °F 28.0 °F 68% 30.08 in 10.0 mi NNE 6.9 mph - N/A   Clear
11:35 PM 37.0 °F 31.6 °F 27.9 °F 69% 30.09 in 10.0 mi NNE 6.9 mph - N/A   Clear
11:55 PM 36.1 °F 30.6 °F 27.5 °F 71% 30.09 in 10.0 mi North 6.9 mph - N/A   Clear